Location: Bijele Vode
(45.2833°N, 16.2000°E)
Time: 14:18:36
(UTC+00:00)

Cosmos 1975 Rocket - Pass Details

Date: 18 September 2020
Orbit: 603 x 634 km, 82.5° (Epoch: 30 October)

Event Time Altitude Azimuth Distance (km) Brightness Sun altitude
Rises 17:28:36 0° 357° (N) 2,881 6.6 -5.9°
Reaches altitude 10° 17:30:56 10° 3° (N) 1,968 5.7 -6.3°
Maximum altitude 17:35:06 44° 77° (ENE) 839 3.4 -7.0°
Drops below altitude 10° 17:39:13 10° 150° (SSE) 1,945 5.2 -7.7°
Sets 17:41:30 0° 157° (SSE) 2,843 6.1 -8.1°
